Airfield :
LOGIN :

Register | Disclaimer

   EN    FR    IT 

 










Legend :    VFR   Marginal VFR   IFR   Intensive IFR   Very Intensive IFR
Visi :
Ceiling :
>= 8 km
>= 3000ft
5 to 8 km
1000 to 3000 ft
1500m to 5 km
500 to 1000 ft
800 to 1500m
200 to 500 ft
< 800m
< 200 ft
Symbols :   Thunderstorms  Fog  Heavy snow  Heavy precipitations  Wind > 20 kt
SIGMETs :     Misc.  Thunderstorms  Icing  Turbulence  Mountain Waves  Volcanic Ashes







- Airport Elevation : 56 ft
- IATA code : BZR
- Download approach charts


LFMU - Beziers / Vias

CURRENT METAR :
  • 211900Z AUTO 32010KT CAVOK 29/17 Q1014 NOSIG

EXPIRED METARs :
  • 211830Z AUTO 32011KT CAVOK 30/16 Q1014 NOSIG
  • 211800Z AUTO 31013KT CAVOK 32/16 Q1014 TEMPO 18010KT
  • 211730Z AUTO VRB08KT CAVOK 33/16 Q1014 NOSIG
  • 211700Z AUTO 16006KT CAVOK 29/19 Q1014 NOSIG
  • 211630Z AUTO 19006KT 150V210 CAVOK 29/17 Q1014 NOSIG

TAF TAF LFMU
Valid from the 21 at 09:00 until the 22 at 09:00 UTC


210800Z 2109/2209 VRB03KT CAVOK
BECMG 2110/2112 18010KT
BECMG 2119/2121 32010KT
ATIS : +33 4 67 90 88 88
No reported NOTAMs for that airfield.



MET'MAP, your aeronautical weather chart ! - Copyright ORBIFLY December 2007 - Disclaimer

ORBIFLY MET'MAP TEAM :

Programming & Development : Alexandra Zaïnal
Concept & Development : Baudouin d'Aumeries
Co-Development & Prog : Marc-Olivier Méhu
Technical & hardware support : Manuel Goepfert

Contact : metmap@orbifly.com




SOURCES & CREDITS :

   NOAA